Погода во Владиславовке

Россия / Республика Крым     45°28′08″N   34°35′43″E
темп.,
°C
ветер,
м/с
пор.,
м/с
влажн.,
%
обл.,
%
осадки,
мм/ч
давл.,
гПа
погр.,
м
24 января, пн
пн2400:00−2с61090100 0.1 1018570
03:00−3ссз5994100 0.4 1019605
06:00−3ссз4895100 0.6 1019553
09:00−3сз589399 1.5 1020547
12:00−2сз4579100 0.2 1021850
15:00−1сз5674100 0.3 1020878
18:00−2зсз4693100 0.1 1022413
21:00−2зюз4696100 0.9 1022293
25 января, вт
вт2500:00−2зюз4597100 0.6 1022281
03:00−2з3597100 1.3 1023263
06:00−3зсз3497100 1.1 1022299
09:00−3зсз3495100 1.7 1023320
12:00−3з2492100 0.3 1023429
15:00−2зсз3594100 1.3 1023454
18:00−3зсз249691 0.6 1022312
21:00−6зсз229796 0.6 102343
26 января, ср
ср2600:00−5зсз249690 0.0 1022145
03:00−9з229870 0.0 102116
06:00−9зюз229990 0.0 102115
09:00−8зюз229756 0.0 102037
12:00−2з238134 0.0 1020477
15:00−1з347799 0.0 1019838
18:00−2ссв1189100 0.0 102013
21:00−6юв229575 0.0 102017
27 января, чт
чт2700:00−7юв11965 0.0 102010
03:00−8всв119647 0.0 102010
06:00−6с129499 0.0 102149
09:00−5ссз239578 0.1 1022128
12:00−3зсз338697 0.1 1022438
15:00−2з4579100 0.1 1021784
18:00−2з3684100 0.0 1022278
21:00−6зюз239061 0.0 102240
28 января, пт
пт2800:00−5ююз37925 0.0 102191
03:00−3ююз41084100 0.0 1021208
06:00−2ююз4118992 0.0 1019284
09:000ююз51391100 0.0 1019369
12:00+3юз7148790 0.0 1018643
15:00+4юз81586100 0.0 1017833
18:00+4юз81589100 0.1 1016724
21:00+4юз71393100 0.3 1017769